Regional Weather Roundup
Issued by NWS

Home | Current Version | Previous Version | Text Only | Print | Product List | Glossary On
Versions: 1 2 3 4 5 6 7 8 9 10 11 12 13 14 15 16 17 18 19 20 21 22 23 24 25 26 27 28 29 30 31 32 33 34 35 36 37 38 39 40 41 42 43 44 45 46 47 48 49 50
000
ASUS44 KJAN 090210
RWRMS

MISSISSIPPI HOURLY WEATHER ROUNDUP
NATIONAL WEATHER SERVICE JACKSON MS
800 PM CST THU DEC 08 2016

NOTE: "FAIR: INDICATES FEW OR NO CLOUDS BELOW 12,000 FEET WITH NO
SIGNIFICANT WEATHER AND/OR OBSTRUCTIONS TO VISIBILITY.

MSZ001>002-007>008-010>013-018>021-025>028-034>036-090300-
NORTHWEST MISSISSIPPI

CITY           SKY/WX    TMP DP  RH WIND       PRES   REMARKS
CLEVELAND      FAIR      34  26  74 N7        30.58S WCI  28
GREENWOOD      CLOUDY    35  21  56 N6        30.56R WCI  30
GREENVILLE     PTCLDY    34  23  64 N8        30.56S WCI  27
OXFORD         FAIR      30  18  59 N7        30.56S WCI  23
WINONA         FAIR      33  22  62 CALM      30.54R
$$

MSZ003>006-009-014>017-022>024-029>033-037>039-090300-
NORTHEAST MISSISSIPPI

CITY           SKY/WX    TMP DP  RH WIND       PRES   REMARKS
COLUMBUS AFB   CLOUDY    37  24  59 NW12      30.50R WCI  29
STARKVILLE     FAIR      36  23  60 NW5       30.52R WCI  32
TUPELO         PTCLDY    34  16  47 NW12      30.52R WCI  25
$$

MSZ040-058-090300-
CENTRAL MISSISSIPPI

CITY           SKY/WX    TMP DP  RH WIND       PRES   REMARKS
JACKSON INTL   CLOUDY    39  27  62 N16       30.49S WCI  30
JACKSON HAWKNS CLOUDY    39  25  57 N10       30.51S WCI  32
MADISON        FAIR      36  27  69 N6        30.51S WCI  31
MERIDIAN KEY   PTCLDY    41  26  55 N10       30.48R
MERIDIAN NAS   MOCLDY    40  23  50 N8        30.49R WCI  34
VICKSBURG VKS  CLOUDY    39  25  56 N16       30.52S WCI  30
$$

MSZ059>079-090300-
SOUTH MISSISSIPPI

CITY           SKY/WX    TMP DP  RH WIND       PRES   REMARKS
COLUMBIA       MOCLDY    41  30  65 N3        30.50R
HATTIESBURG    CLEAR     43  27  53 N6        30.48R
LAUREL         FAIR      41  28  60 N5        30.47S
MCCOMB         CLOUDY    42  29  59 N10       30.47R
NATCHEZ        PTCLDY    39  27  60 N9G16     30.51R WCI  33
PINE BELT      CLOUDY    39  27  60 N3        30.49R
$$

MSZ080>082-090300-
COASTAL MISSISSIPPI

CITY           SKY/WX    TMP DP  RH WIND       PRES   REMARKS
BAY ST LOUIS   MOCLDY    46  25  42 N13       30.44R
BILOXI         CLOUDY    48  28  46 N16       30.41R
PASCAGOULA     CLOUDY    48  27  44 N16G23    30.41R
GULFPORT       CLOUDY    49  28  44 N15       30.41R
$$

LAZ007>009-015>016-023>026-090300-
NORTHEAST LOUISIANA

CITY           SKY/WX    TMP DP  RH WIND       PRES   REMARKS
BASTROP        FAIR      38  24  57 CALM      30.57R
TALLULAH/VBURG CLOUDY    39  24  55 N15       30.54S WCI  31
VIDALIA        FAIR      41  25  54 N16       30.56R
$$



USA.gov is the U.S. government's official web portal to all federal, state and local government web resources and services.